(735) Marghanna
ephemeris date magn radius delta ra dec elong phase
Today14 Jul 202616.13.282 AU4.200 AU09h03m+30°27'22.3°6.7°
Opposition7 Mar 202715.23.595 AU2.644 AU11h43m+22°59'160.6°5.3°
(735) Marghanna - 2026-07-14
astro.vanbuitenen.nl


 
-1 year
-1 month
-1 day
Now
+1 day
+1 month
+1 year

The interactive orbit chart above shows the body's path through the solar system and its position at the given date. Green and blue lines are shown perpendicular to the ecliptic plane: Green if the path is above the ecliptic plane, blue if it is below. (Left-click and drag to rotate the view; Right-click and drag to move the view; Use scroll wheel to zoom in our out.)

The orbital elements of Marghanna are:

            e (Eccentricity)                : 0.3211861
            a (Semimajor axis)              : 2.7320296
            i (Inclination)                 : 16.85380
            Ω (Longitude of ascending node) : 42.81961
            ω (Argument of perihelion)      : 310.19677
            M (Mean anomaly)                : 106.86857
            Epoch                           : 2026 Jun 09

            L (Longitude of perihelion)     : -5.73939
            B (Latitude of perihelion)      : -12.79470
            P (Orbital period in years)     : 4.52            
        

The light curve chart below shows the estimated development of the minor planet's magnitude.


The all-sky chart below shows the path of the minor planet over the same period as the light curve. The current position is marked yellow.





The following chart shows the path of the minor planet in the next few days. The field of view is optimized for (~10x50) binoculars and finderscopes.




Ephemerides:
Date       Time       RA (2000)    DEC (2000)    delta   radius  elong  phase   PA    magn
2026-07-14 00:00 UT   09 03 30.2   +30 27 34     4.200    3.282   22.3    6.7    72   16.1 
2026-07-14 09:40 UT   09 04 05.5   +30 24 54     4.203    3.283   22.1    6.7    72   16.1 
2026-07-15 00:00 UT   09 04 57.9   +30 20 56     4.207    3.285   21.8    6.6    72   16.1 
2026-07-16 00:00 UT   09 06 25.5   +30 14 18     4.213    3.287   21.3    6.5    71   16.1 
2026-07-17 00:00 UT   09 07 53.1   +30 07 38     4.219    3.289   20.8    6.3    70   16.1 
2026-07-18 00:00 UT   09 09 20.6   +30 00 58     4.225    3.291   20.3    6.2    69   16.1 
2026-07-19 00:00 UT   09 10 47.9   +29 54 17     4.231    3.293   19.9    6.0    68   16.1 
2026-07-20 00:00 UT   09 12 15.2   +29 47 36     4.236    3.295   19.4    5.9    67   16.1 
2026-07-21 00:00 UT   09 13 42.3   +29 40 53     4.242    3.297   19.0    5.7    66   16.1 
2026-07-22 00:00 UT   09 15 09.3   +29 34 10     4.247    3.299   18.5    5.6    64   16.1 
2026-07-23 00:00 UT   09 16 36.2   +29 27 27     4.252    3.302   18.1    5.5    63   16.1 
2026-07-24 00:00 UT   09 18 03.0   +29 20 43     4.257    3.304   17.7    5.4    62   16.0 
2026-07-25 00:00 UT   09 19 29.7   +29 13 58     4.262    3.306   17.3    5.2    60   16.0 
2026-07-26 00:00 UT   09 20 56.2   +29 07 12     4.267    3.308   16.9    5.1    59   16.0 
2026-07-27 00:00 UT   09 22 22.7   +29 00 26     4.271    3.310   16.5    5.0    57   16.0 
2026-07-28 00:00 UT   09 23 49.0   +28 53 40     4.276    3.312   16.1    4.9    56   16.0 
2026-07-29 00:00 UT   09 25 15.1   +28 46 53     4.280    3.314   15.7    4.8    54   16.0 
2026-07-30 00:00 UT   09 26 41.1   +28 40 05     4.284    3.316   15.4    4.7    52   16.0 
2026-07-31 00:00 UT   09 28 07.0   +28 33 17     4.288    3.318   15.1    4.6    50   16.0 
2026-08-01 00:00 UT   09 29 32.8   +28 26 29     4.292    3.320   14.8    4.5    48   16.0 
2026-08-02 00:00 UT   09 30 58.4   +28 19 40     4.295    3.322   14.5    4.4    46   16.0 
2026-08-03 00:00 UT   09 32 23.9   +28 12 51     4.299    3.324   14.2    4.3    44   16.0 
2026-08-04 00:00 UT   09 33 49.3   +28 06 01     4.302    3.326   13.9    4.2    42   16.0 
2026-08-05 00:00 UT   09 35 14.5   +27 59 11     4.305    3.328   13.7    4.1    40   16.0 
2026-08-06 00:00 UT   09 36 39.5   +27 52 21     4.308    3.330   13.5    4.1    37   16.0 
2026-08-07 00:00 UT   09 38 04.5   +27 45 31     4.311    3.332   13.3    4.0    35   16.0 
2026-08-08 00:00 UT   09 39 29.2   +27 38 40     4.314    3.334   13.2    4.0    32   16.0 


    Terminology:
            
    delta:  distance between minor planet and earth in AU
    radius: distance between minor planet and sun in AU
    magn:   magnitude (brightness) estimate    
    ra:     right ascension in hours (24h = 360deg)
    dec:    declination in degrees
    elong:  elongation in degrees (angle sun-earth-minor planet)    
    phase:  phase angle in degrees (angle sun-minor planet-earth)        
    AU:     Astronomical Unit (mean distance between earth and sun: 149597870.7 km
    

Orbital elements provided by the MPC (Minor Planet Center).
Calculations by a modified version of AAPlus, a C# implementation of the AA+ project by PJ Naughter from the algorithms presented in the book "Astronomical Algorithms" by Jean Meeus.
NGC2000 dso catalog and star labels from VizieR as provided by the Strasbourg astronomical Data Center.
Tycho2 catalog from the ESO archive.